Location: Hiram
(41.3130°N, 81.1440°W)
Time: 12:46:29
(UTC-04:00)

Amateur Radio Satellites - All Passes

Search period start: 23 May 2017 12:16
Search period end: 24 May 2017 12:16
Location: Hiram, 41.3130°N, 81.1440°W

Satellite Date Start Highest point End Downlink Frequencies (MHz)
Time Altitude Azimuth
YUBILEINY 23 May 12:18:47 12:26:21 31° 69° (ENE) 12:33:53 435.215
EO-79 23 May 12:19:15 12:23:25 76° 75° (ENE) 12:27:37 145.935-145.965
BUGSAT 1 23 May 12:19:29 12:22:15 18° 66° (ENE) 12:25:02 437.445
ESTCUBE 1 23 May 12:21:05 12:25:08 32° 97° (E) 12:29:09 437.505/2401.250
EO-88 23 May 12:28:57 12:31:00 14° 294° (WNW) 12:33:03 145.990 - 145.960
AIST 2D 23 May 12:34:36 12:37:40 28° 264° (W) 12:40:47 435.315
Oscar 19 23 May 13:01:39 13:05:45 24° 65° (ENE) 13:09:52 437.125/150
NANOSAT C BR1 23 May 13:07:32 13:11:17 33° 263° (W) 13:15:05 145.865
POLYITAN 1 23 May 13:08:35 13:12:13 29° 263° (W) 13:15:55 437.675
QB50P2 23 May 13:17:30 13:20:46 22° 266° (W) 13:24:03 145.880/145.840
RS-15 23 May 13:18:24 13:30:25 68° 245° (WSW) 13:41:49 29.354- 29.394
DUCHIFAT 1 23 May 13:20:38 13:24:09 26° 264° (W) 13:27:41 145.980
LO-87 23 May 13:24:02 13:26:44 21° 291° (WNW) 13:29:25 145.935 - 145.965
50 SAT 23 May 13:32:20 13:35:00 21° 96° (E) 13:37:39 437.505
VELOX 1 23 May 13:33:14 13:37:30 48° 100° (E) 13:41:43 145.980
AO-7 23 May 13:37:14 13:40:46 13° 44° (NE) 13:44:19 .
Gurwin Techsat 1B 23 May 13:47:50 13:52:43 39° 69° (ENE) 13:57:37 435.225
BUGSAT 1 23 May 13:53:43 13:57:22 34° 262° (W) 14:01:03 437.445
NO-84 23 May 13:55:27 13:56:58 12° 352° (N) 13:58:26 435.350 FM
SPROUT 23 May 13:55:50 14:00:07 89° 281° (WNW) 14:04:23 437.525
ESTCUBE 1 23 May 13:58:08 14:01:47 25° 293° (WNW) 14:05:24 437.505/2401.250
O/OREOS (USA 219) 23 May 14:11:48 14:15:08 20° 56° (NE) 14:18:26 437.305
YUBILEINY 23 May 14:15:02 14:23:40 60° 269° (W) 14:32:15 435.215
DX 1 23 May 14:20:57 14:25:13 56° 101° (E) 14:29:28 434.975-435.025
UKube-1 23 May 14:21:05 14:25:06 38° 98° (E) 14:29:06 .
Oscar 19 23 May 14:39:52 14:44:48 43° 261° (W) 14:49:45 437.125/150
AO-85 23 May 14:56:49 15:00:49 69° 56° (NE) 15:05:03 145.980
BEESAT 3 23 May 15:01:06 15:04:28 25° 48° (NE) 15:07:47 437.485
50 SAT 23 May 15:05:13 15:07:46 20° 291° (WNW) 15:10:18 437.505
ITUPSAT 1 23 May 15:08:36 15:09:45 11° 89° (E) 15:10:53 437.325
VELOX 1 23 May 15:10:50 15:13:32 16° 296° (WNW) 15:16:15 145.980
AO-7 23 May 15:23:45 15:31:46 57° 65° (ENE) 15:39:50 .
Gurwin Techsat 1B 23 May 15:28:17 15:32:44 27° 265° (W) 15:37:12 435.225
ITAMSAT 1 23 May 15:33:13 15:38:13 53° 71° (ENE) 15:43:14 435.822/435.867
NO-84 23 May 15:33:57 15:36:00 14° 14° (NNE) 15:37:57 435.350 FM
RS-15 23 May 15:34:58 15:40:18 14° 266° (W) 15:45:32 29.354- 29.394
BEESAT 23 May 15:42:14 15:46:13 26° 95° (E) 15:50:11 436.000
O/OREOS (USA 219) 23 May 15:50:28 15:54:45 43° 254° (WSW) 15:58:59 437.305
MOZHAYETS 4 23 May 15:56:57 16:00:24 20° 93° (E) 16:03:50
UKube-1 23 May 15:57:46 16:00:51 19° 295° (WNW) 16:03:56 .
DX 1 23 May 15:58:40 16:00:56 14° 297° (WNW) 16:03:10 434.975-435.025
BEESAT 2 23 May 16:09:41 16:13:36 45° 53° (NE) 16:17:29 435.950
BEESAT 3 23 May 16:38:29 16:42:04 32° 245° (WSW) 16:45:36 437.485
AO-85 23 May 16:39:39 16:40:43 11° 251° (WSW) 16:41:48 145.980
ITUPSAT 1 23 May 16:43:17 16:48:07 79° 285° (WNW) 16:52:55 437.325
NO-84 23 May 17:10:52 17:14:25 44° 35° (NE) 17:17:40 435.350 FM
ITAMSAT 1 23 May 17:14:25 17:17:58 19° 267° (W) 17:21:33 435.822/435.867
KKS-1 23 May 17:16:19 17:19:32 20° 94° (E) 17:22:46 437.445
AO-7 23 May 17:17:41 17:24:51 32° 263° (W) 17:32:07 .
BEESAT 23 May 17:19:42 17:24:00 34° 292° (WNW) 17:28:18 436.000
DOVE 4 23 May 17:33:08 17:36:59 26° 69° (ENE) 17:40:41 437.250
MOZHAYETS 4 23 May 17:33:21 17:37:42 40° 289° (WNW) 17:42:01
BEESAT 2 23 May 17:48:25 17:51:00 16° 250° (WSW) 17:53:33 435.950
STARS 23 May 17:57:03 18:00:33 23° 95° (E) 18:04:01 437.465
XW-2D 23 May 18:01:55 18:05:04 25° 70° (ENE) 18:08:13 145.860 - 145.880
CUBESAT XI-V 23 May 18:09:31 18:14:13 89° 100° (E) 18:18:50 437.345
XW-2B 23 May 18:09:33 18:12:52 29° 71° (ENE) 18:16:13 145.730 - 145.750
XW-2C 23 May 18:22:42 18:26:17 43° 73° (ENE) 18:29:56 145.795 - 145.815
XW-2F 23 May 18:24:24 18:27:59 43° 73° (ENE) 18:31:37 145.980 - 146.000
NUDT-PHONESAT 23 May 18:34:25 18:37:57 45° 74° (ENE) 18:41:33 437.300
KAITUO 1B 23 May 18:37:53 18:41:32 52° 74° (ENE) 18:45:14 145.475/437.950
CUTE-I 23 May 18:42:07 18:47:23 70° 73° (ENE) 18:52:40 437.470
HO-68 23 May 18:45:29 18:51:28 30° 60° (ENE) 18:57:27 435.675
NO-84 23 May 18:49:11 18:51:39 18° 235° (SW) 18:53:58 435.350 FM
KKS-1 23 May 18:52:07 18:56:13 38° 290° (WNW) 19:00:18 437.445
LilacSat-2 23 May 18:56:37 19:00:24 65° 258° (WSW) 19:04:15 437.200
DOVE 4 23 May 19:10:24 19:14:34 31° 263° (W) 19:18:34 437.250
CUTE 1.7 + AOD 2 23 May 19:17:52 19:21:30 28° 69° (ENE) 19:25:09 437.475
CUBEBUG 2 23 May 19:21:26 19:23:40 14° 64° (ENE) 19:25:56 437.445
STARS 23 May 19:33:00 19:36:54 32° 291° (WNW) 19:40:47 437.465
XW-2D 23 May 19:36:12 19:39:11 22° 265° (W) 19:42:12 145.860 - 145.880
UWE-3 23 May 19:39:14 19:41:21 14° 63° (ENE) 19:43:27 435.000/436.395/437.385
XW-2B 23 May 19:44:24 19:47:05 18° 267° (W) 19:49:49 145.730 - 145.750
STRAND 1 23 May 19:46:36 19:50:01 18° 92° (E) 19:53:26 437.568
PCSat 23 May 19:46:43 19:51:01 25° 107° (ESE) 19:55:21 145.827
AAUSAT CUBESAT 2 23 May 19:49:14 19:52:10 19° 66° (ENE) 19:55:07 437.432
CUBESAT XI-V 23 May 19:50:06 19:50:49 10° 300° (WNW) 19:51:32 437.345
XW-2A 23 May 19:58:56 20:02:15 72° 76° (ENE) 20:05:36 145.665 - 145.685
XW-2C 23 May 19:58:59 20:00:43 13° 269° (W) 20:02:27 145.795 - 145.815
XW-2F 23 May 20:00:39 20:02:21 13° 269° (W) 20:04:04 145.980 - 146.000
NUDT-PHONESAT 23 May 20:10:52 20:12:07 11° 269° (W) 20:13:23 437.300
SEEDS 23 May 20:13:05 20:17:18 73° 76° (ENE) 20:21:34 437.485
KAITUO 1B 23 May 20:15:14 20:15:52 10° 270° (W) 20:16:29 145.475/437.950
Oscar 11 23 May 20:24:55 20:27:56 19° 66° (ENE) 20:30:59 .
CUTE-I 23 May 20:25:06 20:27:55 14° 270° (W) 20:30:45 437.470
HO-68 23 May 20:31:45 20:38:46 57° 259° (WSW) 20:45:50 435.675
AO-73 23 May 20:46:21 20:50:12 37° 71° (ENE) 20:54:09 145.935
CUTE 1.7 + AOD 2 23 May 20:53:42 20:57:17 25° 265° (W) 21:00:52 437.475
CUBEBUG 2 23 May 20:55:52 20:59:52 49° 261° (W) 21:03:57 437.445
ZACube-1 23 May 20:58:00 21:02:05 56° 74° (ENE) 21:06:17 437.345
UWE-3 23 May 21:13:16 21:17:18 53° 260° (W) 21:21:29 435.000/436.395/437.385
M-CUBED/EXP-1 PRIME 23 May 21:18:36 21:20:53 17° 99° (E) 21:23:09 437.505
ISS 23 May 21:20:19 21:22:03 14° 130° (SE) 21:23:46 437.550
Tancredo 1 23 May 21:20:34 21:22:54 20° 134° (SE) 21:25:14 437.200
AAUSAT CUBESAT 2 23 May 21:23:28 21:27:21 37° 263° (W) 21:31:15 437.432
STRAND 1 23 May 21:24:30 21:29:31 55° 288° (WNW) 21:34:32 437.568
PCSat 23 May 21:28:53 21:34:07 47° 305° (NW) 21:39:22 145.827
EO-88 23 May 21:32:45 21:35:11 17° 67° (ENE) 21:37:38 145.990 - 145.960
Oscar 11 23 May 21:59:42 22:03:46 40° 262° (W) 22:07:53 .
FO-29 23 May 22:00:41 22:04:09 15° 90° (E) 22:07:48 435.910
DELFI C3 23 May 22:12:20 22:16:19 78° 78° (ENE) 22:20:20 145.870
AO-73 23 May 22:23:41 22:26:35 18° 268° (W) 22:29:32 145.935
TIGRISAT 23 May 22:25:14 22:27:58 15° 92° (E) 22:30:43 435.000
PRISM 23 May 22:28:21 22:31:21 20° 94° (E) 22:34:21 437.425
LO-87 23 May 22:29:06 22:29:34 10° 64° (ENE) 22:30:02 145.935 - 145.965
ZACube-1 23 May 22:37:07 22:38:46 12° 271° (W) 22:40:24 437.345
M-CUBED/EXP-1 PRIME 23 May 22:52:41 22:55:22 23° 296° (WNW) 22:57:59 437.505
UNISAT 6 23 May 22:54:48 22:58:59 34° 97° (E) 23:03:12 437.425
ISS 23 May 22:54:52 22:58:09 69° 326° (NW) 23:01:27 437.550
Tancredo 1 23 May 22:55:31 22:58:28 42° 330° (NNW) 23:01:26 437.200
EO-88 23 May 23:05:24 23:08:38 30° 263° (W) 23:11:54 145.990 - 145.960
ESTCUBE 1 23 May 23:20:30 23:24:27 30° 69° (ENE) 23:28:24 437.505/2401.250
SO-50 23 May 23:33:04 23:37:24 43° 117° (ESE) 23:41:43 436.795
FO-29 23 May 23:43:25 23:49:43 90° 294° (WNW) 23:56:52 435.910
LO-87 23 May 23:59:05 00:02:33 51° 260° (W) 00:06:01 145.935 - 145.965
AIST 2D 23 May 23:59:46 00:02:23 19° 94° (E) 00:05:00 435.315
TIGRISAT 24 May 00:00:28 00:04:54 52° 287° (WNW) 00:09:25 435.000
PRISM 24 May 00:03:04 00:06:41 31° 290° (WNW) 00:10:17 437.425
EO-79 24 May 00:05:41 00:07:25 12° 90° (E) 00:09:09 145.935-145.965
VELOX 1 24 May 00:30:12 00:34:23 43° 71° (ENE) 00:38:33 145.980
UNISAT 6 24 May 00:31:50 00:35:30 24° 293° (WNW) 00:39:14 437.425
ISS 24 May 00:32:45 00:35:07 18° 345° (NNW) 00:37:29 437.550
Tancredo 1 24 May 00:33:06 00:34:51 14° 349° (N) 00:36:37 437.200
SPROUT 24 May 00:48:45 00:52:56 67° 75° (ENE) 00:57:10 437.525
NANOSAT C BR1 24 May 00:51:14 00:55:10 36° 98° (E) 00:59:05 145.865
POLYITAN 1 24 May 00:52:35 00:56:39 41° 99° (E) 01:00:42 437.675
ESTCUBE 1 24 May 00:57:24 01:01:12 26° 265° (W) 01:05:02 437.505/2401.250
QB50P2 24 May 01:00:58 01:05:10 57° 100° (E) 01:09:22 145.880/145.840
DUCHIFAT 1 24 May 01:03:38 01:07:42 44° 99° (E) 01:11:46 145.980
SO-50 24 May 01:14:15 01:18:01 25° 315° (NW) 01:21:45 436.795
UKube-1 24 May 01:15:25 01:19:16 32° 69° (ENE) 01:23:07 .
DX 1 24 May 01:16:09 01:20:21 48° 72° (ENE) 01:24:32 434.975-435.025
YUBILEINY 24 May 01:20:14 01:27:45 34° 84° (E) 01:35:18 435.215
FO-29 24 May 01:30:27 01:34:08 16° 300° (WNW) 01:38:02 435.910
AIST 2D 24 May 01:32:37 01:35:34 24° 290° (WNW) 01:38:29 435.315
RS-15 24 May 01:32:54 01:40:49 21° 98° (E) 01:48:50 29.354- 29.394
BUGSAT 1 24 May 01:34:56 01:38:35 30° 97° (E) 01:42:15 437.445
50 SAT 24 May 01:36:25 01:39:49 55° 259° (W) 01:43:14 437.505
EO-79 24 May 01:39:20 01:43:30 57° 287° (WNW) 01:47:41 145.935-145.965
Gurwin Techsat 1B 24 May 02:05:16 02:08:10 15° 90° (E) 02:11:03 435.225
VELOX 1 24 May 02:08:04 02:11:01 17° 267° (W) 02:13:58 145.980
Tancredo 1 24 May 02:09:55 02:11:36 14° 10° (N) 02:13:16 437.200
ISS 24 May 02:10:44 02:12:35 14° 5° (N) 02:14:26 437.550
ITUPSAT 1 24 May 02:14:49 02:17:18 14° 61° (ENE) 02:19:49 437.325
NANOSAT C BR1 24 May 02:27:33 02:30:37 20° 294° (WNW) 02:33:41 145.865
POLYITAN 1 24 May 02:29:15 02:32:06 18° 295° (WNW) 02:34:57 437.675
QB50P2 24 May 02:38:23 02:40:28 14° 297° (WNW) 02:42:34 145.880/145.840
DUCHIFAT 1 24 May 02:40:21 02:43:00 16° 295° (WNW) 02:45:39 145.980
BEESAT 24 May 02:48:33 02:52:40 30° 68° (ENE) 02:56:49 436.000
Oscar 19 24 May 02:51:01 02:56:11 67° 102° (ESE) 03:01:16 437.125/150
UKube-1 24 May 02:51:59 02:55:20 22° 265° (W) 02:58:41 .
DX 1 24 May 02:54:17 02:56:48 15° 268° (W) 02:59:17 434.975-435.025
MOZHAYETS 4 24 May 02:59:01 03:02:22 20° 65° (ENE) 03:05:44
BUGSAT 1 24 May 03:10:34 03:13:46 22° 292° (WNW) 03:16:59 437.445
YUBILEINY 24 May 03:15:43 03:24:08 52° 284° (WNW) 03:32:41 435.215
AO-7 24 May 03:27:10 03:32:03 16° 90° (E) 03:36:54 .
RS-15 24 May 03:39:14 03:51:19 82° 119° (ESE) 04:03:44 29.354- 29.394
Gurwin Techsat 1B 24 May 03:43:18 03:48:36 69° 286° (WNW) 03:53:52 435.225
Tancredo 1 24 May 03:45:07 03:48:01 38° 29° (NNE) 03:50:54 437.200
ISS 24 May 03:46:55 03:49:52 30° 25° (NNE) 03:52:49 437.550
ITAMSAT 1 24 May 03:46:56 03:50:29 18° 92° (E) 03:54:01 435.822/435.867
ITUPSAT 1 24 May 03:49:49 03:54:33 68° 258° (WSW) 03:59:20 437.325
KKS-1 24 May 04:14:37 04:17:44 19° 65° (ENE) 04:20:53 437.445
O/OREOS (USA 219) 24 May 04:24:20 04:27:46 21° 101° (E) 04:31:12 437.305
BEESAT 24 May 04:26:18 04:30:23 29° 264° (W) 04:34:31 436.000
Oscar 19 24 May 04:31:48 04:34:55 16° 299° (WNW) 04:38:02 437.125/150
PCSat 24 May 04:33:46 04:38:06 23° 46° (NE) 04:42:23 145.827
MOZHAYETS 4 24 May 04:34:53 04:39:13 41° 262° (W) 04:43:36
STARS 24 May 04:53:52 04:57:10 21° 66° (ENE) 05:00:27 437.465
AO-85 24 May 05:12:17 05:15:25 20° 113° (ESE) 05:18:26 145.980
CUBESAT XI-V 24 May 05:12:17 05:17:00 86° 69° (ENE) 05:21:45 437.345
AO-7 24 May 05:17:30 05:25:55 85° 109° (ESE) 05:34:18 .
Tancredo 1 24 May 05:21:09 05:23:39 23° 225° (SW) 05:26:08 437.200
ISS 24 May 05:23:21 05:26:24 37° 222° (SW) 05:29:26 437.550
ITAMSAT 1 24 May 05:25:11 05:30:15 55° 289° (WNW) 05:35:19 435.822/435.867
KKS-1 24 May 05:49:49 05:54:00 41° 261° (W) 05:58:12 437.445
RS-15 24 May 05:54:10 06:05:16 38° 325° (NW) 06:16:32 29.354- 29.394
O/OREOS (USA 219) 24 May 06:02:36 06:06:54 38° 298° (WNW) 06:11:13 437.305
PCSat 24 May 06:16:32 06:21:52 59° 245° (WSW) 06:27:10 145.827
BEESAT 3 24 May 06:27:38 06:31:17 38° 116° (ESE) 06:35:01 437.485
STARS 24 May 06:29:16 06:33:16 35° 262° (W) 06:37:17 437.465
LilacSat-2 24 May 06:31:13 06:33:10 13° 91° (E) 06:35:08 437.200
AO-85 24 May 06:51:44 06:55:35 36° 308° (NW) 06:59:17 145.980
CUTE-I 24 May 06:59:31 07:04:02 27° 95° (E) 07:08:33 437.470
STRAND 1 24 May 07:02:19 07:06:29 26° 65° (ENE) 07:10:40 437.568
XW-2D 24 May 07:07:48 07:11:23 35° 97° (E) 07:14:55 145.860 - 145.880
DOVE 4 24 May 07:08:13 07:12:21 66° 100° (E) 07:16:33 437.250
AO-7 24 May 07:11:32 07:17:43 24° 307° (NW) 07:23:55 .
XW-2B 24 May 07:15:34 07:19:16 43° 99° (E) 07:22:56 145.730 - 145.750
XW-2C 24 May 07:28:58 07:32:50 66° 101° (E) 07:36:38 145.795 - 145.815
XW-2F 24 May 07:30:12 07:34:02 65° 101° (E) 07:37:50 145.980 - 146.000
BEESAT 2 24 May 07:37:55 07:41:52 83° 124° (SE) 07:45:55 435.950
NUDT-PHONESAT 24 May 07:38:17 07:42:03 65° 101° (E) 07:45:46 437.300
KAITUO 1B 24 May 07:42:43 07:46:33 76° 102° (ESE) 07:50:20 145.475/437.950
SEEDS 24 May 07:58:50 08:00:28 12° 90° (E) 08:02:08 437.485
HO-68 24 May 07:59:44 08:05:52 29° 95° (E) 08:11:56 435.675
M-CUBED/EXP-1 PRIME 24 May 08:03:19 08:07:06 31° 66° (ENE) 08:10:39 437.505
LilacSat-2 24 May 08:03:58 08:07:40 42° 287° (WNW) 08:11:19 437.200
SO-50 24 May 08:04:07 08:08:22 39° 51° (NE) 08:12:37 436.795
BEESAT 3 24 May 08:05:53 08:09:00 22° 314° (NW) 08:12:09 437.485
RS-15 24 May 08:13:36 08:22:48 23° 359° (N) 08:31:54 29.354- 29.394
CUTE 1.7 + AOD 2 24 May 08:37:35 08:41:48 53° 100° (E) 08:45:57 437.475
CUTE-I 24 May 08:39:14 08:44:08 38° 292° (WNW) 08:49:02 437.470
STRAND 1 24 May 08:40:44 08:45:27 38° 262° (W) 08:50:12 437.568
XW-2D 24 May 08:42:49 08:45:16 16° 294° (WNW) 08:47:43 145.860 - 145.880
CUBEBUG 2 24 May 08:46:01 08:50:09 33° 97° (E) 08:54:21 437.445
ZACube-1 24 May 08:47:59 08:49:41 12° 89° (E) 08:51:24 437.345
DOVE 4 24 May 08:48:31 08:49:31 11° 298° (WNW) 08:50:33 437.250
XW-2B 24 May 08:51:01 08:53:04 14° 295° (WNW) 08:55:08 145.730 - 145.750
XW-2A 24 May 08:53:08 08:56:35 77° 101° (E) 09:00:02 145.665 - 145.685
UWE-3 24 May 09:02:26 09:06:28 30° 96° (E) 09:10:33 435.000/436.395/437.385
AAUSAT CUBESAT 2 24 May 09:05:21 09:09:05 31° 96° (E) 09:12:46 437.432
PRISM 24 May 09:18:11 09:20:40 16° 64° (ENE) 09:23:09 437.425
BEESAT 2 24 May 09:18:19 09:20:12 13° 320° (NW) 09:22:06 435.950
TIGRISAT 24 May 09:25:00 09:27:00 13° 62° (ENE) 09:28:59 435.000
SEEDS 24 May 09:32:22 09:36:31 56° 286° (WNW) 09:40:37 437.485
M-CUBED/EXP-1 PRIME 24 May 09:37:59 09:41:29 24° 259° (WSW) 09:44:50 437.505
SO-50 24 May 09:45:01 09:48:36 23° 248° (WSW) 09:52:12 436.795
Oscar 11 24 May 09:46:39 09:50:40 35° 97° (E) 09:54:38 .
HO-68 24 May 09:46:54 09:53:52 54° 293° (WNW) 10:00:48 435.675
UNISAT 6 24 May 09:53:57 09:57:35 28° 69° (ENE) 10:01:17 437.425
FO-29 24 May 09:57:20 10:01:58 34° 68° (ENE) 10:06:42 435.910
NO-84 24 May 10:03:57 10:08:15 55° 133° (SE) 10:12:24 435.350 FM
AO-73 24 May 10:09:30 10:14:03 82° 101° (E) 10:18:37 145.935
CUTE 1.7 + AOD 2 24 May 10:14:53 10:17:09 14° 296° (WNW) 10:19:25 437.475
ZACube-1 24 May 10:21:51 10:26:22 67° 285° (WNW) 10:30:54 437.345
CUBEBUG 2 24 May 10:22:55 10:26:36 25° 292° (WNW) 10:30:21 437.445
RS-15 24 May 10:29:20 10:40:25 36° 34° (NNE) 10:51:04 29.354- 29.394
EO-88 24 May 10:34:11 10:37:02 21° 94° (E) 10:39:54 145.990 - 145.960
UWE-3 24 May 10:38:59 10:42:48 27° 291° (WNW) 10:46:40 435.000/436.395/437.385
AAUSAT CUBESAT 2 24 May 10:41:13 10:44:20 21° 293° (WNW) 10:47:26 437.432
PRISM 24 May 10:51:36 10:55:34 45° 260° (W) 10:59:33 437.425
TIGRISAT 24 May 10:58:58 11:03:09 59° 259° (W) 11:07:26 435.000
Oscar 11 24 May 11:23:17 11:26:33 21° 293° (WNW) 11:29:49 .
DELFI C3 24 May 11:23:56 11:27:50 62° 285° (WNW) 11:31:42 145.870
LO-87 24 May 11:27:44 11:28:58 11° 92° (E) 11:30:12 145.935 - 145.965
YUBILEINY 24 May 11:30:37 11:35:52 17° 60° (ENE) 11:41:06 435.215
UNISAT 6 24 May 11:30:47 11:34:16 24° 265° (W) 11:37:49 437.425
HO-68 24 May 11:38:34 11:40:00 11° 312° (NW) 11:41:26 435.675
NO-84 24 May 11:42:17 11:46:04 28° 330° (NNW) 11:49:41 435.350 FM
FO-29 24 May 11:42:51 11:47:11 26° 265° (W) 11:51:34 435.910
NANOSAT C BR1 24 May 11:43:25 11:46:55 27° 69° (ENE) 11:50:26 145.865
POLYITAN 1 24 May 11:45:09 11:48:50 31° 70° (ENE) 11:52:33 437.675
AO-73 24 May 11:48:27 11:49:36 11° 299° (WNW) 11:50:47 145.935
QB50P2 24 May 11:53:21 11:57:18 41° 72° (ENE) 12:01:16 145.880/145.840
DUCHIFAT 1 24 May 11:55:22 11:59:04 32° 70° (ENE) 12:02:48 145.980
AIST 2D 24 May 12:06:00 12:09:29 71° 259° (W) 12:13:02 435.315
EO-88 24 May 12:07:39 12:10:40 24° 290° (WNW) 12:13:40 145.990 - 145.960
